User: anonymous   Login
Location: Winthrop
(48.4780°N, 120.1850°W)
Time: 02:55:03
(UTC-07:00)
Language:

CUTE 1.7 + AOD 2 - Orbit

View from above orbital plane
View from above orbital plane
View from above satellite
View from above satellite

Ground track
Ground track

The orbit data is extracted from the following two-line orbital elements,

1 32785U 08021C   22141.69430722  .00003387  00000-0  36081-3 0  9991
2 32785  97.6557 113.3956 0011758 329.8590  30.1950 14.89496099762509
Epoch (UTC): 21 May 2022 16:39:48
Eccentricity: 0.0011758
inclination: 97.6557°
perigee height: 591 km
apogee height: 608 km
right ascension of ascending node: 113.3956°
argument of perigee: 329.8590°
revolutions per day: 14.89496099
mean anomaly at epoch: 30.1950°
orbit number at epoch: 76250

The dashed part of the orbit path shows where the satellite is in the earth's shadow,  

DLR